Location: Gwatt
(46.7204°N, 7.6223°E)
Time: 11:17:41
(UTC+00:00)

Transit 2A - Pass Details

Date: 13 May 2021
Orbit: 601 x 958 km, 66.7° (Epoch: 15 June)

Event Time Altitude Azimuth Distance (km) Brightness Sun altitude
Exits shadow 01:40:20 36° 240° (WSW) 991 6.1 -18.2°
Maximum altitude 01:41:59 62° 306° (NW) 692 5.7 -18.0°
Drops below altitude 10° 01:46:18 10° 28° (NNE) 1,953 9.4 -17.6°
Sets 01:48:34 0° 32° (NNE) 2,860 10.7 -17.4°
